[[{"header":{"parameterUnit":"m.s-1","parameterCategory":1,"la1":30.2991,"la2":30.254,"lo1":-89.0895,"lo2":-89.0444,"dy":0.0017,"dx":0.0017,"nx":28,"ny":28,"refTime":"2025-03-11T21:00:00:Z","depth":0,"parameterNumber":2,"parameterNumberName":"U-component_of_WINDS"},"data":[0,0,0,0,0,0,0,0,0,0,0,0,0,0,0,0,0,0,0,0,0,0,0,0,0,0,0,0,0,0,0,0,0,0,0,0,0,0,0,0,0,0,0,0,0,0,0,0,0,0,0,0,0,0,0,0,0,0,-0.0979,-0.0978,0,-0.0916,-0.0915,-0.0915,-0.0879,-0.0879,-0.0879,-0.0879,-0.081,-0.0808,-0.0807,0,0,0,0,0,0,0,0,0,0,0,0,0,-0.1065,-0.1063,-0.0979,-0.0978,-0.0977,-0.0916,-0.0915,-0.0914,-0.0879,-0.0879,-0.0879,-0.0878,-0.0811,-0.0809,-0.0807,0,0,0,0,0,0,0,0,0,0,0,0,0,-0.1017,-0.1063,-0.0979,-0.0952,-0.0949,-0.0916,-0.0915,-0.0914,-0.0879,-0.0879,-0.0879,-0.0878,-0.0811,-0.0809,-0.0806,-0.0794,0,0,-0.0798,-0.0797,0,0,0,0,0,0,0,0,-0.102,-0.1014,-0.0957,-0.0954,-0.0951,-0.0905,-0.092,-0.0874,-0.0879,-0.0905,-0.0879,-0.0878,-0.0842,-0.0836,-0.0825,-0.079,-0.0788,-0.0798,-0.0797,-0.0795,-0.0795,0,0,0,0,0,0,0,-0.1023,-0.1016,-0.0954,-0.0956,-0.0952,-0.0942,-0.0935,-0.0911,-0.0875,-0.0903,-0.09,-0.0894,-0.084,-0.0828,-0.0823,-0.0787,-0.0798,-0.0796,-0.0794,-0.0793,-0.0739,-0.0739,0,0,0,0,0,0,-0.1031,-0.1019,-0.0956,-0.0952,-0.0986,-0.0941,-0.0933,-0.092,-0.0875,-0.0868,-0.0894,-0.0892,-0.0832,-0.0826,-0.0821,-0.0803,-0.0796,-0.0793,-0.0792,-0.0739,-0.0739,-0.0739,0,0,0,0,0,0,-0.1033,-0.1026,-0.0958,-0.0985,-0.0976,-0.094,-0.0925,-0.0919,-0.0906,-0.0868,-0.0861,-0.0888,-0.0832,-0.0824,-0.0801,-0.08,-0.0792,-0.079,-0.0739,-0.0739,-0.0739,-0.0768,0,0,0,0,0,0,-0.1036,-0.1027,-0.1022,-0.0985,-0.0974,-0.0941,-0.0925,-0.0918,-0.0903,-0.09,-0.0861,-0.0855,-0.0831,-0.0805,-0.0799,-0.0796,-0.0788,-0.0739,-0.0739,-0.0739,-0.0767,-0.0769,-0.0771,0,0,0,0,0,-0.1039,-0.1032,-0.1022,-0.1015,-0.0968,-0.0941,-0.0935,-0.0909,-0.0903,-0.0897,-0.0873,-0.0856,-0.0802,-0.0803,-0.0795,-0.0792,-0.0739,-0.0739,-0.0739,-0.0766,-0.0769,-0.0771,0,0,0,0,0,0,-0.1068,-0.1026,-0.1015,-0.0996,-0.0973,-0.0935,-0.0927,-0.0912,-0.0889,-0.0887,-0.0855,-0.0846,-0.0826,-0.0807,-0.0809,-0.0778,-0.0768,-0.0767,-0.0791,-0.0794,-0.0796,-0.08,-0.0785,0,0,0,0,0,-0.1073,-0.1055,-0.1019,-0.1006,-0.0995,-0.0964,-0.095,-0.0933,-0.0906,-0.0896,-0.087,-0.0844,-0.0821,-0.0806,-0.0783,-0.0764,-0.0755,-0.0759,-0.0761,-0.0763,-0.0761,-0.075,-0.0751,-0.074,-0.074,-0.074,0,0,-0.1081,-0.1056,-0.1047,-0.1011,-0.0991,-0.0972,-0.0955,-0.0936,-0.0922,-0.0892,-0.0869,-0.085,-0.0818,-0.0798,-0.0787,-0.0781,-0.0763,-0.0763,-0.0765,-0.0762,-0.0751,-0.0752,-0.0753,-0.074,-0.074,-0.074,0,0,-0.1087,-0.1067,-0.1054,-0.1034,-0.1004,-0.0984,-0.0981,-0.0946,-0.0932,-0.0909,-0.0886,-0.0869,-0.083,-0.0809,-0.0793,-0.0793,-0.0776,-0.0786,-0.0796,-0.0786,-0.0787,-0.0787,-0.0787,-0.0787,-0.0785,-0.0785,-0.0785,0,-0.1101,-0.1074,-0.1049,-0.1032,-0.1016,-0.0991,-0.0977,-0.0959,-0.0922,-0.0912,-0.0906,-0.0858,-0.0834,-0.0809,-0.0809,-0.0797,-0.0792,-0.079,-0.0789,-0.0789,-0.0789,-0.0789,-0.0789,-0.0787,-0.0787,-0.0786,-0.0786,0,-0.1092,-0.1074,-0.1067,-0.1034,-0.1018,-0.1003,-0.0974,-0.0961,-0.0945,-0.0925,-0.0902,-0.0874,-0.0845,-0.0837,-0.0821,-0.0809,-0.0807,-0.0795,-0.0784,-0.0792,-0.0791,-0.0791,-0.0789,-0.0788,-0.0788,-0.0788,0,0,-0.1114,-0.1069,-0.1066,-0.1052,-0.1017,-0.1002,-0.0985,-0.0959,-0.0948,-0.0924,-0.0908,-0.0877,-0.0867,-0.0849,-0.083,-0.0821,-0.0823,-0.0811,-0.081,-0.0814,-0.0808,-0.0817,-0.0817,-0.0812,-0.0812,-0.0812,-0.0811,0,-0.1115,-0.1085,-0.1062,-0.1041,-0.1023,-0.0999,-0.0985,-0.0962,-0.0943,-0.0924,-0.0903,-0.0881,-0.0869,-0.0859,-0.0849,-0.0825,-0.0821,-0.0825,-0.0796,-0.0796,-0.0805,-0.0816,-0.0825,-0.0825,-0.081,-0.081,-0.081,0,-0.1111,-0.109,-0.1067,-0.1036,-0.1028,-0.1015,-0.0989,-0.0972,-0.0946,-0.0932,-0.0914,-0.0894,-0.0875,-0.0867,-0.0839,-0.0842,-0.083,-0.0816,-0.0816,-0.0811,-0.0803,-0.0812,-0.0824,-0.0824,-0.0809,-0.0809,-0.0809,0,-0.1129,-0.1094,-0.1077,-0.1065,-0.1027,-0.1019,-0.1003,-0.0977,-0.0962,-0.0939,-0.093,-0.0904,-0.089,-0.087,-0.0845,-0.0841,-0.082,-0.0809,-0.0807,-0.0808,-0.0803,-0.0804,-0.0813,-0.0796,-0.0796,-0.0796,-0.0796,0,-0.1132,-0.1119,-0.1084,-0.1073,-0.1058,-0.1032,-0.1017,-0.0998,-0.0975,-0.0959,-0.0937,-0.0922,-0.089,-0.0871,-0.0851,-0.0831,-0.0825,-0.0813,-0.0808,-0.0815,-0.0816,-0.0805,-0.0804,-0.0796,-0.0796,-0.0796,-0.0796,0,-0.1148,-0.1125,-0.1104,-0.1071,-0.1063,-0.1053,-0.1024,-0.1012,-0.0993,-0.0973,-0.0967,-0.0936,-0.0913,-0.0886,-0.0853,-0.084,-0.0821,-0.0814,-0.0831,-0.0828,-0.0827,-0.0828,-0.083,-0.0829,-0.0813,-0.0813,-0.0813,0,-0.1151,-0.1141,-0.1108,-0.1097,-0.1082,-0.1064,-0.105,-0.1024,-0.101,-0.0979,-0.0971,-0.0947,-0.0926,-0.089,-0.0864,-0.0839,-0.083,-0.0833,-0.0826,-0.0834,-0.083,-0.083,-0.0829,-0.0834,-0.0834,-0.0835,-0.0835,0,-0.1159,-0.1149,-0.113,-0.1107,-0.1092,-0.1072,-0.1051,-0.1043,-0.1013,-0.0998,-0.0976,-0.096,-0.0928,-0.0904,-0.0876,-0.0858,-0.0841,-0.0838,-0.0836,-0.0842,-0.0853,-0.0847,-0.0835,-0.0837,-0.0837,-0.0837,-0.0837,-0.0837,-0.1169,-0.1159,-0.1135,-0.1114,-0.1097,-0.1078,-0.1066,-0.1046,-0.1027,-0.1,-0.0985,-0.0963,-0.0937,-0.0898,-0.0881,-0.0862,-0.0856,-0.0854,-0.0853,-0.0853,-0.0855,-0.0857,-0.0857,-0.0857,-0.0857,-0.0857,-0.0857,0,-0.1175,-0.1159,-0.1141,-0.1114,-0.1098,-0.1086,-0.1063,-0.105,-0.1031,-0.1009,-0.099,-0.0964,-0.0941,-0.0913,-0.0888,-0.0879,-0.087,-0.0873,-0.0873,-0.0869,-0.0861,-0.0866,-0.088,-0.088,-0.088,-0.088,-0.088,-0.088,-0.1177,-0.116,-0.1146,-0.112,-0.1103,-0.1082,-0.107,-0.1053,-0.1035,-0.1008,-0.0989,-0.0972,-0.0948,-0.0921,-0.0899,-0.0892,-0.0883,-0.0888,-0.0878,-0.0871,-0.0869,-0.0867,-0.0871,-0.0886,-0.0886,-0.0887,-0.0887,-0.0887]},{"header":{"parameterUnit":"m.s-1","parameterCategory":1,"la1":30.2991,"la2":30.254,"lo1":-89.0895,"lo2":-89.0444,"dy":0.0017,"dx":0.0017,"nx":28,"ny":28,"refTime":"2025-03-11T21:00:00:Z","depth":0,"parameterNumber":3,"parameterNumberName":"V-component_of_WINDS"},"data":[0,0,0,0,0,0,0,0,0,0,0,0,0,0,0,0,0,0,0,0,0,0,0,0,0,0,0,0,0,0,0,0,0,0,0,0,0,0,0,0,0,0,0,0,0,0,0,0,0,0,0,0,0,0,0,0,0,0,3.5791,3.5791,0,3.5833,3.5833,3.5834,3.5838,3.5837,3.5837,3.5836,3.5877,3.5878,3.5879,0,0,0,0,0,0,0,0,0,0,0,0,0,3.5711,3.5712,3.579,3.5791,3.5792,3.5833,3.5833,3.5834,3.5838,3.5837,3.5837,3.5836,3.5876,3.5878,3.588,0,0,0,0,0,0,0,0,0,0,0,0,0,3.5749,3.5713,3.579,3.5798,3.58,3.5833,3.5833,3.5834,3.5838,3.5837,3.5836,3.5836,3.5876,3.5878,3.588,3.5907,0,0,3.5887,3.5888,0,0,0,0,0,0,0,0,3.5746,3.5751,3.5797,3.5798,3.5799,3.5829,3.582,3.5858,3.5838,3.5823,3.5836,3.5836,3.5861,3.5865,3.5874,3.5909,3.5911,3.5887,3.5888,3.5889,3.589,0,0,0,0,0,0,0,3.5744,3.575,3.5807,3.5797,3.5799,3.5799,3.5804,3.5827,3.5845,3.5824,3.5825,3.583,3.5862,3.5872,3.5875,3.5911,3.5887,3.5889,3.589,3.5891,3.5972,3.5973,0,0,0,0,0,0,3.574,3.5747,3.5806,3.5808,3.5771,3.5801,3.5807,3.582,3.5845,3.5848,3.583,3.583,3.5868,3.5872,3.5876,3.5911,3.5889,3.5891,3.5893,3.5971,3.5972,3.5973,0,0,0,0,0,0,3.5738,3.5745,3.5804,3.5778,3.5786,3.5803,3.5819,3.5822,3.5832,3.585,3.5853,3.5838,3.5868,3.5873,3.59,3.5912,3.5892,3.5894,3.597,3.5972,3.5973,3.5979,0,0,0,0,0,0,3.5736,3.5745,3.5755,3.5778,3.5787,3.5828,3.582,3.5823,3.5836,3.5835,3.5857,3.586,3.5868,3.5897,3.5902,3.5915,3.5896,3.5969,3.5971,3.5972,3.5978,3.598,3.5983,0,0,0,0,0,3.5733,3.5754,3.5756,3.5763,3.5801,3.5828,3.5833,3.5843,3.5837,3.5848,3.586,3.5859,3.591,3.5899,3.5906,3.5919,3.5969,3.5971,3.5972,3.5977,3.598,3.5983,0,0,0,0,0,0,3.573,3.5757,3.5759,3.5789,3.5806,3.5829,3.5843,3.5845,3.5864,3.5863,3.5873,3.5878,3.5904,3.5914,3.5902,3.5948,3.5939,3.5942,3.594,3.5943,3.5945,3.5942,3.5898,0,0,0,0,0,3.5733,3.5754,3.5776,3.58,3.5809,3.5824,3.5836,3.5843,3.5861,3.5868,3.5882,3.5899,3.5919,3.5931,3.5951,3.598,3.5985,3.5992,3.5995,3.5996,3.5999,3.6016,3.602,3.5979,3.5979,3.5979,0,0,3.5739,3.5757,3.5769,3.58,3.5814,3.5835,3.583,3.5852,3.5868,3.5871,3.5898,3.5909,3.5928,3.5957,3.597,3.5966,3.6012,3.5999,3.6,3.6002,3.6019,3.6022,3.6026,3.5981,3.598,3.598,0,0,3.5761,3.5776,3.5798,3.5813,3.5836,3.5847,3.5852,3.5875,3.5883,3.591,3.5913,3.5932,3.5965,3.598,3.5991,3.6021,3.6022,3.6027,3.6039,3.6056,3.6059,3.6062,3.6074,3.6077,3.603,3.603,3.603,0,3.5765,3.5797,3.5809,3.5832,3.5846,3.5851,3.5874,3.5888,3.5915,3.5924,3.592,3.5964,3.5977,3.601,3.6017,3.6026,3.6033,3.6024,3.6058,3.6061,3.6064,3.6075,3.6079,3.603,3.603,3.603,3.603,0,3.5802,3.5825,3.584,3.5868,3.5884,3.5906,3.5921,3.5935,3.594,3.5951,3.598,3.5996,3.602,3.6028,3.6032,3.6062,3.6059,3.6056,3.6047,3.6068,3.6079,3.6083,3.6031,3.6031,3.6031,3.6031,0,0,3.5821,3.5858,3.5863,3.5877,3.5903,3.592,3.5944,3.5968,3.5981,3.6,3.6019,3.6049,3.6047,3.6061,3.6067,3.6082,3.6106,3.6077,3.6078,3.6083,3.614,3.6142,3.6147,3.6107,3.6107,3.6108,3.6139,0,3.5846,3.5889,3.5901,3.5936,3.5958,3.5965,3.5985,3.6003,3.6015,3.6034,3.6046,3.6067,3.6063,3.6072,3.6087,3.61,3.6117,3.6097,3.6125,3.6126,3.612,3.6152,3.6154,3.6182,3.6143,3.6143,3.6144,0,3.5881,3.5903,3.5941,3.5967,3.5976,3.5994,3.6019,3.6037,3.6059,3.6066,3.6082,3.6088,3.6112,3.6103,3.6136,3.6123,3.6135,3.6143,3.6144,3.6147,3.6136,3.6156,3.6191,3.6195,3.615,3.615,3.6149,0,3.5892,3.5931,3.5959,3.5971,3.6001,3.6014,3.6027,3.6048,3.6062,3.6083,3.6093,3.6116,3.6129,3.6147,3.6158,3.615,3.6192,3.6183,3.6198,3.6198,3.6206,3.6205,3.6244,3.6214,3.6214,3.6213,3.6213,0,3.5919,3.5942,3.5965,3.5983,3.6009,3.6023,3.6049,3.6062,3.6081,3.6101,3.6108,3.6126,3.614,3.6161,3.617,3.6197,3.6203,3.6209,3.6211,3.6209,3.6208,3.6216,3.6215,3.6215,3.6214,3.6214,3.6214,0,3.5935,3.5952,3.5983,3.6011,3.6018,3.6037,3.6059,3.6077,3.6089,3.6115,3.6121,3.614,3.6165,3.6179,3.6209,3.6215,3.6246,3.6247,3.6239,3.624,3.6255,3.6254,3.63,3.6307,3.6272,3.6273,3.6273,0,3.5951,3.5969,3.6,3.6014,3.6028,3.6051,3.6067,3.6082,3.6098,3.6125,3.6139,3.6164,3.6185,3.6224,3.624,3.6264,3.6266,3.6281,3.6269,3.6267,3.6267,3.6266,3.6268,3.6282,3.6283,3.6283,3.6283,0,3.5978,3.5986,3.6009,3.6035,3.6054,3.6076,3.6096,3.6108,3.6126,3.6144,3.617,3.6186,3.6219,3.6244,3.627,3.6282,3.6286,3.6287,3.6292,3.6289,3.6284,3.6288,3.6245,3.6285,3.6285,3.6285,3.6285,3.6285,3.5995,3.6012,3.6037,3.6063,3.6081,3.6101,3.6119,3.6135,3.6157,3.6186,3.6193,3.6221,3.6243,3.6278,3.6291,3.6313,3.631,3.6317,3.6319,3.632,3.6321,3.6281,3.6318,3.6318,3.6317,3.6317,3.6317,0,3.6022,3.6039,3.6063,3.6093,3.6114,3.6118,3.6141,3.6158,3.6183,3.6204,3.6226,3.6256,3.6281,3.6301,3.6326,3.634,3.6342,3.6346,3.6345,3.6348,3.6322,3.6316,3.6344,3.6344,3.6344,3.6344,3.6344,3.6344,3.6039,3.6069,3.608,3.612,3.6136,3.6165,3.6178,3.6197,3.6214,3.6249,3.6271,3.6284,3.6304,3.6332,3.6355,3.636,3.6369,3.6373,3.6378,3.6353,3.635,3.6347,3.6341,3.6375,3.6375,3.6403,3.6403,3.6403]}]]